TimeEDT,TemperatureF,Dew PointF,Humidity,Sea Level PressureIn,VisibilityMPH,Wind Direction,Wind SpeedMPH,Gust SpeedMPH,PrecipitationIn,Events,Conditions,WindDirDegrees,DateUTC
12:18 AM,59.0,51.8,77,30.11,10.0,SW,8.1,-,N/A,,Clear,220,2012-10-06 04:18:00
12:37 AM,60.8,51.8,72,30.10,10.0,SW,10.4,-,N/A,,Clear,220,2012-10-06 04:37:00
12:58 AM,57.2,50.0,77,30.10,10.0,SW,8.1,-,N/A,,Clear,220,2012-10-06 04:58:00
1:18 AM,57.2,48.2,72,30.09,10.0,SW,8.1,-,N/A,,Clear,220,2012-10-06 05:18:00
1:37 AM,57.2,50.0,77,30.08,10.0,SW,12.7,-,N/A,,Clear,230,2012-10-06 05:37:00
1:57 AM,57.2,50.0,77,30.08,10.0,SW,10.4,-,N/A,,Clear,230,2012-10-06 05:57:00
2:18 AM,57.2,50.0,77,30.07,10.0,SW,12.7,-,N/A,,Clear,230,2012-10-06 06:18:00
2:38 AM,57.2,50.0,77,30.06,10.0,WSW,12.7,20.7,N/A,,Clear,240,2012-10-06 06:38:00
2:57 AM,55.4,50.0,82,30.06,10.0,WSW,15.0,-,N/A,,Clear,240,2012-10-06 06:57:00
3:17 AM,57.2,50.0,77,30.05,10.0,WSW,16.1,-,N/A,,Scattered Clouds,240,2012-10-06 07:17:00
3:37 AM,57.2,50.0,77,30.04,10.0,WSW,15.0,-,N/A,,Scattered Clouds,240,2012-10-06 07:37:00
3:58 AM,55.4,50.0,82,30.03,10.0,WSW,17.3,-,N/A,,Clear,250,2012-10-06 07:58:00
4:18 AM,57.2,50.0,77,30.03,10.0,WSW,20.7,25.3,N/A,,Scattered Clouds,250,2012-10-06 08:18:00
4:38 AM,55.4,50.0,82,30.03,10.0,WSW,18.4,-,N/A,,Scattered Clouds,250,2012-10-06 08:38:00
4:58 AM,57.2,51.8,82,30.03,10.0,West,20.7,25.3,N/A,,Scattered Clouds,260,2012-10-06 08:58:00
5:37 AM,55.4,51.8,88,30.02,10.0,West,20.7,26.5,N/A,,Clear,260,2012-10-06 09:37:00
5:58 AM,55.4,51.8,88,30.02,10.0,West,19.6,-,N/A,,Clear,260,2012-10-06 09:58:00
6:38 AM,55.4,51.8,88,30.01,10.0,West,18.4,-,N/A,,Clear,260,2012-10-06 10:38:00
6:58 AM,55.4,51.8,88,30.01,10.0,West,18.4,23.0,N/A,,Scattered Clouds,260,2012-10-06 10:58:00
7:17 AM,55.4,51.8,88,30.01,10.0,West,16.1,24.2,N/A,,Scattered Clouds,260,2012-10-06 11:17:00
7:37 AM,55.4,51.8,88,30.01,10.0,West,17.3,26.5,N/A,,Clear,260,2012-10-06 11:37:00
7:57 AM,55.4,51.8,88,30.01,10.0,West,20.7,26.5,N/A,,Clear,270,2012-10-06 11:57:00
8:18 AM,55.4,51.8,88,30.01,10.0,West,19.6,24.2,N/A,,Mostly Cloudy,260,2012-10-06 12:18:00
8:38 AM,55.4,51.8,88,30.01,10.0,West,17.3,26.5,N/A,,Mostly Cloudy,270,2012-10-06 12:38:00
8:58 AM,57.2,51.8,82,30.02,10.0,West,17.3,28.8,N/A,,Clear,260,2012-10-06 12:58:00
9:18 AM,57.2,53.6,88,30.01,10.0,West,17.3,24.2,N/A,,Scattered Clouds,260,2012-10-06 13:18:00
9:38 AM,55.4,51.8,88,30.01,10.0,West,16.1,24.2,N/A,,Mostly Cloudy,260,2012-10-06 13:38:00
9:57 AM,55.4,53.6,94,30.01,10.0,West,18.4,24.2,N/A,,Overcast,270,2012-10-06 13:57:00
10:17 AM,55.4,53.6,94,30.01,10.0,West,18.4,25.3,N/A,,Overcast,270,2012-10-06 14:17:00
10:37 AM,55.4,53.6,94,30.01,10.0,West,17.3,23.0,N/A,,Overcast,280,2012-10-06 14:37:00
10:57 AM,55.4,53.6,94,30.01,10.0,WNW,19.6,27.6,N/A,,Overcast,290,2012-10-06 14:57:00
11:17 AM,55.4,53.6,94,30.01,10.0,West,20.7,28.8,N/A,,Overcast,280,2012-10-06 15:17:00
11:39 AM,53.6,53.6,100,30.01,10.0,West,24.2,34.5,N/A,,Overcast,280,2012-10-06 15:39:00
11:58 AM,53.6,51.8,94,30.02,7.0,West,23.0,29.9,N/A,,Overcast,280,2012-10-06 15:58:00
12:17 PM,51.8,51.8,100,30.03,10.0,West,21.9,28.8,N/A,,Overcast,280,2012-10-06 16:17:00
12:37 PM,51.8,50.0,94,30.03,10.0,West,19.6,27.6,N/A,,Overcast,280,2012-10-06 16:37:00
12:59 PM,53.6,51.8,94,30.03,10.0,West,19.6,28.8,N/A,,Overcast,270,2012-10-06 16:59:00
1:18 PM,53.6,48.2,82,30.03,10.0,West,20.7,27.6,N/A,,Overcast,280,2012-10-06 17:18:00
1:38 PM,55.4,48.2,77,30.03,10.0,West,15.0,26.5,N/A,,Overcast,280,2012-10-06 17:38:00
1:57 PM,53.6,46.4,77,30.03,10.0,West,17.3,-,N/A,,Overcast,280,2012-10-06 17:57:00
2:17 PM,53.6,46.4,77,30.03,10.0,West,16.1,23.0,N/A,,Overcast,280,2012-10-06 18:17:00
2:37 PM,55.4,46.4,72,30.03,10.0,West,19.6,27.6,N/A,,Mostly Cloudy,280,2012-10-06 18:37:00
2:57 PM,55.4,44.6,67,30.03,10.0,WNW,17.3,23.0,N/A,,Scattered Clouds,300,2012-10-06 18:57:00
3:17 PM,55.4,44.6,67,30.03,10.0,WNW,13.8,24.2,N/A,,Scattered Clouds,290,2012-10-06 19:17:00
3:37 PM,53.6,44.6,72,30.03,10.0,West,13.8,19.6,N/A,,Clear,280,2012-10-06 19:37:00
3:57 PM,53.6,42.8,67,30.04,10.0,West,11.5,16.1,N/A,,Clear,280,2012-10-06 19:57:00
4:17 PM,53.6,42.8,67,30.04,10.0,WNW,9.2,-,N/A,,Clear,290,2012-10-06 20:17:00
4:38 PM,53.6,42.8,67,30.04,10.0,West,10.4,-,N/A,,Clear,280,2012-10-06 20:38:00
4:58 PM,51.8,42.8,71,30.04,10.0,NW,5.8,-,N/A,,Clear,310,2012-10-06 20:58:00
5:18 PM,51.8,42.8,71,30.05,10.0,NW,9.2,-,N/A,,Scattered Clouds,320,2012-10-06 21:18:00
5:37 PM,51.8,41.0,67,30.05,10.0,NW,9.2,-,N/A,,Clear,320,2012-10-06 21:37:00
5:58 PM,50.0,42.8,76,30.05,10.0,NW,5.8,-,N/A,,Clear,310,2012-10-06 21:58:00
6:17 PM,48.2,41.0,76,30.06,10.0,NW,8.1,-,N/A,,Clear,310,2012-10-06 22:17:00
6:37 PM,46.4,39.2,76,30.06,10.0,WNW,6.9,-,N/A,,Clear,290,2012-10-06 22:37:00
7:17 PM,44.6,37.4,76,30.08,10.0,NW,8.1,-,N/A,,Clear,320,2012-10-06 23:17:00
7:37 PM,42.8,37.4,81,30.09,10.0,NNW,8.1,-,N/A,,Clear,330,2012-10-06 23:37:00
7:59 PM,42.8,37.4,81,30.10,10.0,NW,8.1,-,N/A,,Clear,310,2012-10-06 23:59:00
8:18 PM,42.8,37.4,81,30.12,10.0,WNW,12.7,-,N/A,,Clear,300,2012-10-07 00:18:00
8:37 PM,42.8,37.4,81,30.12,10.0,WNW,6.9,-,N/A,,Clear,300,2012-10-07 00:37:00
8:57 PM,41.0,37.4,87,30.12,10.0,WNW,8.1,-,N/A,,Clear,290,2012-10-07 00:57:00
9:17 PM,41.0,37.4,87,30.13,10.0,West,12.7,-,N/A,,Clear,280,2012-10-07 01:17:00
9:37 PM,39.2,37.4,93,30.12,10.0,West,12.7,-,N/A,,Clear,280,2012-10-07 01:37:00
9:59 PM,39.2,37.4,93,30.13,10.0,NW,3.5,9.2,N/A,,Clear,310,2012-10-07 01:59:00
10:18 PM,41.0,35.6,81,30.14,10.0,NW,10.4,-,N/A,,Clear,310,2012-10-07 02:18:00
10:38 PM,39.2,37.4,93,30.13,10.0,WNW,10.4,-,N/A,,Clear,300,2012-10-07 02:38:00
10:59 PM,39.2,37.4,93,30.12,10.0,NW,10.4,-,N/A,,Clear,310,2012-10-07 02:59:00
11:19 PM,39.2,35.6,87,30.11,10.0,NW,11.5,-,N/A,,Clear,310,2012-10-07 03:19:00
11:39 PM,39.2,35.6,87,30.08,10.0,NW,13.8,-,N/A,,Clear,320,2012-10-07 03:39:00
11:59 PM,39.2,35.6,87,30.09,10.0,NW,10.4,-,N/A,,Clear,310,2012-10-07 03:59:00